Home > Weather > Linz > Past weeks

Flag for Austria Past Weather in Linz, Upper Austria, Austria — Yesterday and Last 2 Weeks

Now
73 °F

Sunny.


Feels Like: 76 °F
Forecast: 56 / 71 °F
Wind: 6 mph from East

Location: Linz / Hoersching-Flughafen

Current Time: Jul 31, 2016 at 9:37:32 AM

Latest Report: Jul 31, 2016 at 8:50 AM


Visibility: 10 mi

Pressure: 29.89 "Hg

Humidity: 69%

Dew Point: 63 °F

Location of LinzLocation

Past Weather in Linz — Graph

°F

Linz Temperature Yesterday

Maximum temperature yesterday: 86 °F (at 4:50 PM)
Minimum temperature yesterday: 59 °F (at 5:50 AM)
Average temperature yesterday: 74 °F

High & Low Weather Summary for the Past Weeks

 TemperatureHumidityPressure
High86 °F (Jul 20, 5:20 PM)100% (Jul 18, 4:20 AM)30.27 "Hg (Jul 18, 4:20 AM)
Low57 °F (Jul 16, 8:20 AM)33% (Jul 20, 5:20 PM)29.89 "Hg (Jul 31, 5:20 AM)
Average70 °F75%30.07 "Hg
* Reported Jul 16 8:20 AM — Jul 31 8:20 AM, Linz, Weather by CustomWeather, © 2016

Note: Actual official high and low records may vary slightly from our data, if they occured in-between our weather recording intervals... More about our weather records

Advertising

Linz Weather History for the Previous 24 Hours

Scroll right to see more
 ConditionsComfort  
Time TempWeatherWind HumidityBarometerVisibility
8:20 AM
Sun, Jul 31
72 °FScattered clouds.3 mph78%29.89 "HgN/A
7:50 AM70 °FSunny.2 mph83%29.89 "Hg10 mi
7:20 AM68 °FSunny.1 mph88%29.89 "Hg10 mi
6:50 AM66 °FSunny.2 mph94%29.89 "Hg10 mi
6:20 AM66 °FClear.1 mph88%29.89 "Hg10 mi
5:50 AM66 °FClear.1 mph88%29.92 "Hg10 mi
5:20 AM64 °FClear.1 mph100%29.89 "Hg10 mi
4:50 AM66 °FClear.3 mph88%29.92 "Hg10 mi
4:20 AM66 °FClear.5 mph94%29.92 "Hg10 mi
3:50 AM68 °FClear.1 mph88%29.92 "Hg10 mi
3:20 AM68 °FPassing clouds.1 mph88%29.92 "HgN/A
2:50 AM68 °FPassing clouds.1 mph88%29.92 "HgN/A
2:20 AM70 °FPassing clouds.1 mph83%29.92 "HgN/A
1:50 AM70 °FPassing clouds.1 mph83%29.92 "HgN/A
1:20 AM70 °FPassing clouds.3 mph83%29.92 "HgN/A
12:50 AM70 °FMild.3 mph83%29.95 "HgN/A
12:20 AM72 °FPassing clouds.2 mph73%29.95 "HgN/A
11:50 PM
Sat, Jul 30
72 °FMild.5 mph78%29.95 "HgN/A
11:20 PM72 °FMild.3 mph78%29.95 "HgN/A
10:50 PM72 °FMild.3 mph78%29.95 "HgN/A
10:20 PM72 °FMild.3 mph78%29.92 "HgN/A
9:50 PM73 °FMild.3 mph69%29.92 "HgN/A
9:20 PM75 °FMild.3 mph69%29.92 "HgN/A
8:50 PM79 °FWarm.3 mph58%29.92 "HgN/A
8:20 PM82 °FWarm.2 mph51%29.92 "HgN/A
7:50 PM82 °FPassing clouds.2 mph51%29.92 "HgN/A
7:20 PM84 °FPassing clouds.2 mph45%29.92 "HgN/A
6:50 PM84 °FPassing clouds.3 mph45%29.92 "HgN/A
6:20 PM86 °FPassing clouds.3 mph43%29.92 "HgN/A
5:50 PM86 °FPassing clouds.5 mph46%29.92 "HgN/A
5:20 PM86 °FPassing clouds.3 mph46%29.92 "HgN/A
4:50 PM86 °FPassing clouds.3 mph43%29.92 "HgN/A
4:20 PM84 °FPassing clouds.5 mph45%29.92 "HgN/A
3:50 PM84 °FPassing clouds.6 mph51%29.95 "HgN/A
3:20 PM84 °FPassing clouds.6 mph48%29.95 "HgN/A
2:50 PM84 °FScattered clouds.3 mph48%29.95 "HgN/A
2:20 PM84 °FPassing clouds.5 mph51%29.95 "HgN/A
1:50 PM84 °FPassing clouds.6 mph51%29.98 "HgN/A
1:20 PM82 °FPassing clouds.5 mph51%29.98 "HgN/A
12:50 PM81 °FPassing clouds.2 mph51%29.98 "HgN/A
12:20 PM81 °FPassing clouds.3 mph54%30.01 "HgN/A
11:50 AM79 °FPassing clouds.3 mph58%30.01 "HgN/A
11:20 AM77 °FPassing clouds.2 mph57%30.01 "HgN/A
10:50 AM75 °FPassing clouds.2 mph65%30.01 "HgN/A
10:20 AM75 °FPassing clouds.2 mph65%30.01 "HgN/A
9:50 AM73 °FPassing clouds.1 mph69%30.01 "HgN/A
9:20 AM72 °FPassing clouds.2 mph69%30.01 "HgN/A
Weather by CustomWeather, © 2016

See weather overviewHow to use our weather pages